Location: *
(46.0770°N, 1.6444°E)
Time: 06:41:56
(UTC+00:00)

NOSS 0 Rocket - Pass Details

Date: 16 September 2019
Orbit: 935 x 955 km, 70.0° (Epoch: 16 October)

Event Time Altitude Azimuth Distance (km) Brightness Sun altitude
Rises 18:56:38 0° 335° (NNW) 3,618 7.6 -9.9°
Reaches altitude 10° 18:59:19 10° 342° (NNW) 2,673 6.8 -10.3°
Maximum altitude 19:05:13 44° 53° (NE) 1,295 4.4 -11.3°
Enters shadow 19:10:05 15° 121° (ESE) 2,325 5.4 -12.1°
